Content
SEND FEEDBACK

Daily
Averages
Monthly
Summary
United States of America

MARATHON CITY, WISCONSIN


Home > North America > United States > Wisconsin
Elevation: 1260 feet     Latitude: 44 58N     Longitude: 089 54W

WEATHER
 
SELECT A DAY
Number of Records: 206,256;   Date Range: 1/1/95 - 8/17/14
 
SHARE

PRINT THIS DATA

[ ← Previous Day ]
WEATHER ALMANAC - FEBRUARY 13, 2013
[ Next Day → ]
[ °C ]   °F
Weather ElementAverageHighLow
Temperature28 °F34 °F (2:54 pm)18 °F (1:54 am)
Dewpoint24.4 °F28.9 °F (8:54 pm)15.1 °F (1:54 am)
Humidity87 %96 % (3:54 am)64 % (1:54 pm)
Barometer29.67 in29.80 in (1:54 am)29.58 in (11:51 pm)
Wind Speed2 mph9.2 mph (2:54 pm)
Weather ElementAverage
Visibility4.5 mi
Wind DirectionENE (76.9 °)

Weather ElementTotal
Precipitation---
Heating Degree Days39 (Base 65)
Averaged from 36 records on February 13, 2013
WEATHER CONDITIONS BREAKOUT
WIND DIRECTION BREAKOUT
WEATHER BY HOUR - FEBRUARY 13, 2013
[ °C ]   °F
Local TimeTemperatureDewpointHumidityBarometerVisibilityWind DirectionWind SpeedGust SpeedPrecipitationEventsConditions
1:54 AM18.0 °F15.1 °F88 %29.80 in5.0 miSouth (190°)4.6 mphMostly Cloudy
2:54 AM18.0 °F16.0 °F92 %29.78 in4.0 miSSW (210°)3.5 mphPartly Cloudy
3:54 AM18.0 °F17.1 °F96 %29.77 in4.0 miSW (220°)3.5 mphClear
4:54 AM18.0 °F16.0 °F92 %29.75 in4.0 miSSW (210°)5.8 mphMostly Cloudy
5:54 AM19.0 °F17.1 °F92 %29.75 in5.0 miCalmOvercast
6:54 AM19.0 °F18.0 °F96 %29.75 in5.0 miCalmOvercast
7:54 AM19.9 °F18.0 °F92 %29.74 in4.0 miSW (220°)5.8 mphOvercast
8:54 AM21.0 °F19.0 °F92 %29.73 in4.0 miSSW (210°)4.6 mphOvercast
9:54 AM23.0 °F21.0 °F92 %29.73 in5.0 miSSW (210°)4.6 mphOvercast
10:54 AM27.0 °F21.9 °F81 %29.72 in7.0 miCalmOvercast
11:54 AM30.0 °F21.9 °F72 %29.70 in9.0 miWNW (300°)8.1 mphOvercast
12:54 PM30.9 °F23.0 °F72 %29.68 in9.0 miVariable3.5 mphOvercast
1:54 PM33.1 °F21.9 °F64 %29.68 in10.0 miNW (310°)6.9 mphOvercast
2:54 PM34.0 °F23.0 °F64 %29.68 in10.0 miWest (270°)9.2 mphOvercast
3:54 PM34.0 °F24.1 °F67 %29.68 in10.0 miVariable3.5 mphOvercast
4:54 PM32.0 °F27.0 °F82 %29.68 in8.0 miSSW (210°)4.6 mphOvercast
5:54 PM32.0 °F26.1 °F79 %29.68 in10.0 miCalmOvercast
6:54 PM33.1 °F26.1 °F75 %29.69 in2.5 miCalm0.00 inSnowLight Snow
7:01 PM32.0 °F26.6 °F80 %29.63 in3.0 miCalm0.00 inSnowLight Snow
7:54 PM32.0 °F27.0 °F82 %29.69 in2.0 miCalm0.00 inSnowLight Snow
8:03 PM30.2 °F26.6 °F86 %29.63 in1.8 miCalm0.00 inSnowLight Snow
8:12 PM30.2 °F28.4 °F93 %29.62 in2.5 miCalm0.00 inSnowLight Snow
8:29 PM30.2 °F28.4 °F93 %29.62 in3.0 miCalm0.00 inSnowLight Snow
8:54 PM30.9 °F28.9 °F92 %29.68 in5.0 miCalm0.00 inOvercast
9:22 PM30.2 °F28.4 °F93 %29.61 in2.5 miCalm0.00 inSnowLight Snow
9:39 PM30.2 °F28.4 °F93 %29.61 in3.0 miSSW (210°)3.5 mph0.00 inSnowLight Snow
9:54 PM30.9 °F28.9 °F92 %29.66 in4.0 miCalm0.00 inSnowLight Snow
10:41 PM30.2 °F28.4 °F93 %29.59 in2.5 miCalm0.00 inSnowLight Snow
10:54 PM30.0 °F28.0 °F92 %29.65 in3.0 miCalm0.00 inSnowLight Snow
11:08 PM30.2 °F28.4 °F93 %29.59 in2.0 miCalm0.00 inSnowLight Snow
11:11 PM30.2 °F28.4 °F93 %29.59 in1.8 miCalm0.00 inSnowLight Snow
11:25 PM30.2 °F28.4 °F93 %29.59 in2.5 miCalm0.00 inSnowLight Snow
11:34 PM30.2 °F28.4 °F93 %29.59 in3.0 miCalm0.00 inSnowLight Snow
11:40 PM30.2 °F28.4 °F93 %29.59 in1.8 miCalm0.00 inSnowLight Snow
11:51 PM30.2 °F28.4 °F93 %29.58 in2.0 miCalm0.00 inSnowLight Snow
11:54 PM30.0 °F28.9 °F96 %29.64 in2.0 miCalm0.00 inSnowLight Snow
Hourly data recorded from KAUW, located miles away from Marathon City, Wisconsin







STORIES FROM OUR PARTNERS